星链-6157 (STARLINK-6157 )

导读 | 星芒AI

STARLINK-6157 是 SpaceX 星链计划中的一颗低轨通信卫星,属于星链第二代卫星群(v1.5)。该卫星于2023年发射,运行在约550公里高度的近地轨道,旨在为全球提供高速互联网服务。它采用先进推进系统和激光通信技术,提升网络稳定性和数据传输效率。星链项目由数千颗卫星组成,致力于实现全球覆盖,尤其服务于偏远地区。STARLINK-6157 的部署有助于增强星链网络的冗余性和服务质量。

基本信息
目录编号:
56379
目录名称:
STARLINK-6157
国际标识:
2023-061F
轨道中心:
EARTH
卫星名称:
星链-6157
卫星全名:
星链-6157 (STARLINK-6157 )
卫星状态:
在轨 (已飞行962 天)
发射日期:
2023-05-04 UTC
国别 :
美国 (US)
星等 :
--
轨道信息
数据来源 国际轨道数据 AOE轨道数据
星历时间 2025-12-21T18:26:18+0800
9小时前
查看轨道信息
2025-12-19T15:00:00+0800
2天前
查看轨道信息
半长轴 6937.233km 6937.266km
偏心率 0.0001131 0.0001154
轨道倾角 43.003° 43.004°
近地点辐角 274.295° 252.579°
升交点赤经 262.638° 274.286°
平近点角 85.777° 21.058°
近地点 558.311km 558.33km
远地点 559.881km 559.932km
周期 95.838分钟 95.839分钟
每日圈数 15.025309 15.025201
详细信息
固有亮度:
5
最大亮度:
2.5
卫星平台:
Starlink v1.5
覆盖范围:
全球
运营商:
太空探索技术公司
运营商所在国:
美国
制造商(研发单位):
太空探索技术公司
制造商所在国:
美国
使用方式:
暂无
卫星简介
星链(Starlink)计划是由太空探索技术公司(SpaceX)提出的一个巨型低轨卫星互联网星座项目,计划在2019年至2024年间在太空搭建由约1.2万颗卫星组成的“星链”网络,其中1584颗将部署在地球上空550千米处的近地轨道,并从2020年开始工作。该卫星仍在工作。
2D轨道图
3D轨道图
轨道高度分析图
轨道倾角分析图
轨道综合分析图
查看轨道综合分析图